Wetterdaten: Mittwoch, 05.11.2014
Datum Zeit Temp. I. Temp. A. Boden 5 cm Feuchte A. Sonne Luftdruck Regen Wind Sonnenschein
05.11.2014 00:00 22,3 C 7,3 C 7,5 C 84 % 0 % 999 hPa 0,0 l/m 0,1 km/h (0 Bft) 0 min
05.11.2014 00:03 22,2 C 7,3 C 7,5 C 84 % 0 % 999 hPa 0,0 l/m 0,0 km/h (0 Bft) 0 min
05.11.2014 00:06 22,2 C 7,2 C 7,7 C 84 % 0 % 999 hPa 0,0 l/m 0,1 km/h (0 Bft) 0 min
05.11.2014 00:09 22,3 C 7,1 C 7,8 C 84 % 0 % 999 hPa 0,0 l/m 2,8 km/h (1 Bft) 0 min
05.11.2014 00:12 22,3 C 7,1 C 7,5 C 84 % 0 % 999 hPa 0,0 l/m 0,4 km/h (0 Bft) 0 min
05.11.2014 00:15 22,3 C 7,1 C 7,7 C 84 % 0 % 999 hPa 0,0 l/m 0,2 km/h (0 Bft) 0 min
05.11.2014 00:18 22,3 C 7,1 C 7,6 C 84 % 0 % 999 hPa 0,0 l/m 0,0 km/h (0 Bft) 0 min
05.11.2014 00:21 22,3 C 7,1 C 7,6 C 84 % 0 % 999 hPa 0,0 l/m 0,2 km/h (0 Bft) 0 min
05.11.2014 00:24 22,3 C 7,1 C 7,4 C 84 % 0 % 999 hPa 0,0 l/m 0,2 km/h (0 Bft) 0 min
05.11.2014 00:27 22,3 C 7,1 C 7,5 C 84 % 0 % 999 hPa 0,0 l/m 3,0 km/h (1 Bft) 0 min
05.11.2014 00:30 22,3 C 7,1 C 7,4 C 84 % 0 % 999 hPa 0,0 l/m 1,6 km/h (1 Bft) 0 min
05.11.2014 00:33 22,3 C 7,0 C 7,4 C 85 % 0 % 999 hPa 0,0 l/m 0,3 km/h (0 Bft) 0 min
05.11.2014 00:36 22,3 C 7,0 C 7,5 C 85 % 0 % 999 hPa 0,0 l/m 0,0 km/h (0 Bft) 0 min
05.11.2014 00:39 22,3 C 7,0 C 7,4 C 85 % 0 % 999 hPa 0,0 l/m 0,1 km/h (0 Bft) 0 min
05.11.2014 00:42 22,3 C 7,0 C 7,3 C 85 % 0 % 999 hPa 0,0 l/m 0,0 km/h (0 Bft) 0 min
05.11.2014 00:45 22,3 C 7,0 C 7,4 C 85 % 0 % 999 hPa 0,0 l/m 2,1 km/h (1 Bft) 0 min
05.11.2014 00:48 22,3 C 7,0 C 7,4 C 85 % 0 % 999 hPa 0,0 l/m 0,6 km/h (0 Bft) 0 min
05.11.2014 00:51 22,2 C 7,0 C 7,2 C 85 % 0 % 999 hPa 0,0 l/m 0,7 km/h (0 Bft) 0 min
05.11.2014 01:01 22,3 C 7,0 C 7,2 C 85 % 0 % 999 hPa 0,0 l/m 0,1 km/h (0 Bft) 0 min
05.11.2014 01:04 22,2 C 7,0 C 7,3 C 85 % 0 % 999 hPa 0,0 l/m 0,1 km/h (0 Bft) 0 min
05.11.2014 01:07 22,2 C 7,0 C 7,2 C 85 % 0 % 999 hPa 0,0 l/m 1,0 km/h (0 Bft) 0 min
05.11.2014 01:10 22,2 C 7,0 C 7,2 C 85 % 0 % 999 hPa 0,0 l/m 0,4 km/h (0 Bft) 0 min
05.11.2014 01:13 22,2 C 7,0 C 7,4 C 85 % 0 % 999 hPa 0,0 l/m 0,8 km/h (0 Bft) 0 min
05.11.2014 01:16 22,2 C 7,0 C 7,3 C 85 % 0 % 999 hPa 0,0 l/m 0,3 km/h (0 Bft) 0 min
05.11.2014 01:19 22,2 C 7,1 C 7,1 C 85 % 0 % 999 hPa 0,0 l/m 0,0 km/h (0 Bft) 0 min
05.11.2014 01:22 22,3 C 7,1 C 7,3 C 85 % 0 % 999 hPa 0,0 l/m 0,0 km/h (0 Bft) 0 min
05.11.2014 01:25 22,3 C 7,2 C 7,2 C 85 % 0 % 999 hPa 0,0 l/m 0,0 km/h (0 Bft) 0 min
05.11.2014 01:28 22,3 C 7,3 C 7,3 C 85 % 0 % 999 hPa 0,0 l/m 0,1 km/h (0 Bft) 0 min
05.11.2014 01:31 22,2 C 7,5 C 7,3 C 85 % 0 % 999 hPa 0,0 l/m 0,1 km/h (0 Bft) 0 min
05.11.2014 01:34 22,3 C 7,5 C 7,2 C 85 % 0 % 999 hPa 0,0 l/m 0,2 km/h (0 Bft) 0 min
05.11.2014 01:37 22,2 C 7,5 C 7,2 C 85 % 0 % 999 hPa 0,0 l/m 0,0 km/h (0 Bft) 0 min
05.11.2014 01:40 22,2 C 7,5 C 7,3 C 85 % 0 % 999 hPa 0,0 l/m 0,0 km/h (0 Bft) 0 min
05.11.2014 01:43 22,3 C 7,5 C 7,2 C 85 % 0 % 999 hPa 0,0 l/m 0,0 km/h (0 Bft) 0 min
05.11.2014 01:46 22,3 C 7,5 C 7,5 C 85 % 0 % 999 hPa 0,0 l/m 0,0 km/h (0 Bft) 0 min
05.11.2014 01:49 22,3 C 7,5 C 7,3 C 84 % 0 % 999 hPa 0,0 l/m 0,0 km/h (0 Bft) 0 min
05.11.2014 01:52 22,2 C 7,6 C 7,6 C 85 % 0 % 999 hPa 0,0 l/m 0,1 km/h (0 Bft) 0 min
05.11.2014 01:55 22,2 C 7,6 C 7,7 C 84 % 0 % 999 hPa 0,0 l/m 0,6 km/h (0 Bft) 0 min
05.11.2014 01:58 22,2 C 7,6 C 7,7 C 84 % 0 % 999 hPa 0,0 l/m 0,0 km/h (0 Bft) 0 min
05.11.2014 02:01 22,3 C 7,7 C 7,8 C 84 % 0 % 999 hPa 0,0 l/m 0,0 km/h (0 Bft) 0 min
05.11.2014 02:04 22,3 C 7,7 C 7,4 C 84 % 0 % 999 hPa 0,0 l/m 0,1 km/h (0 Bft) 0 min
05.11.2014 02:07 22,3 C 7,5 C 7,4 C 84 % 0 % 999 hPa 0,0 l/m 0,1 km/h (0 Bft) 0 min
05.11.2014 02:10 22,2 C 7,5 C 7,5 C 84 % 0 % 999 hPa 0,0 l/m 0,0 km/h (0 Bft) 0 min
05.11.2014 02:13 22,2 C 7,4 C 7,5 C 84 % 0 % 999 hPa 0,0 l/m 0,0 km/h (0 Bft) 0 min
05.11.2014 02:16 22,2 C 7,3 C 7,5 C 84 % 0 % 999 hPa 0,0 l/m 0,3 km/h (0 Bft) 0 min
05.11.2014 02:19 22,2 C 7,3 C 7,6 C 84 % 0 % 999 hPa 0,0 l/m 0,0 km/h (0 Bft) 0 min
05.11.2014 02:22 22,2 C 7,3 C 7,5 C 84 % 0 % 999 hPa 0,0 l/m 0,1 km/h (0 Bft) 0 min
05.11.2014 02:25 22,2 C 7,3 C 7,6 C 84 % 0 % 999 hPa 0,0 l/m 0,1 km/h (0 Bft) 0 min
05.11.2014 02:28 22,2 C 7,2 C 7,5 C 85 % 0 % 999 hPa 0,0 l/m 0,1 km/h (0 Bft) 0 min
05.11.2014 02:31 22,3 C 7,2 C 7,5 C 85 % 0 % 999 hPa 0,0 l/m 0,3 km/h (0 Bft) 0 min
05.11.2014 02:34 22,3 C 7,2 C 7,5 C 85 % 0 % 999 hPa 0,0 l/m 0,3 km/h (0 Bft) 0 min
05.11.2014 02:37 22,3 C 7,2 C 7,7 C 85 % 0 % 999 hPa 0,0 l/m 1,6 km/h (1 Bft) 0 min
05.11.2014 02:40 22,3 C 7,2 C 7,5 C 85 % 0 % 999 hPa 0,0 l/m 1,5 km/h (1 Bft) 0 min
05.11.2014 02:43 22,3 C 7,2 C 7,5 C 85 % 0 % 999 hPa 0,0 l/m 0,7 km/h (0 Bft) 0 min
05.11.2014 02:46 22,3 C 7,1 C 7,6 C 85 % 0 % 999 hPa 0,0 l/m 0,0 km/h (0 Bft) 0 min
05.11.2014 02:49 22,3 C 7,1 C 7,7 C 85 % 0 % 999 hPa 0,0 l/m 1,2 km/h (1 Bft) 0 min
05.11.2014 02:52 22,3 C 7,1 C 7,6 C 85 % 0 % 999 hPa 0,0 l/m 0,8 km/h (0 Bft) 0 min
05.11.2014 02:55 22,3 C 7,1 C 7,4 C 85 % 0 % 999 hPa 0,0 l/m 0,8 km/h (0 Bft) 0 min
05.11.2014 02:58 22,3 C 7,1 C 7,6 C 85 % 0 % 999 hPa 0,0 l/m 1,7 km/h (1 Bft) 0 min
05.11.2014 03:01 22,3 C 7,1 C 7,6 C 85 % 0 % 999 hPa 0,0 l/m 1,7 km/h (1 Bft) 0 min
05.11.2014 03:04 22,2 C 7,2 C 7,5 C 86 % 0 % 999 hPa 0,0 l/m 0,4 km/h (0 Bft) 0 min
05.11.2014 03:07 22,3 C 7,3 C 7,5 C 86 % 0 % 999 hPa 0,0 l/m 1,8 km/h (1 Bft) 0 min
05.11.2014 03:10 22,3 C 7,4 C 7,6 C 86 % 0 % 999 hPa 0,0 l/m 1,1 km/h (1 Bft) 0 min
05.11.2014 03:13 22,3 C 7,4 C 7,5 C 86 % 0 % 999 hPa 0,0 l/m 0,6 km/h (0 Bft) 0 min
05.11.2014 03:16 22,3 C 7,3 C 7,6 C 86 % 0 % 999 hPa 0,0 l/m 0,4 km/h (0 Bft) 0 min
05.11.2014 03:19 22,3 C 7,3 C 7,6 C 86 % 0 % 999 hPa 0,0 l/m 1,5 km/h (1 Bft) 0 min
05.11.2014 03:22 22,3 C 7,4 C 7,6 C 86 % 0 % 999 hPa 0,0 l/m 0,3 km/h (0 Bft) 0 min
05.11.2014 03:25 22,2 C 7,5 C 7,8 C 86 % 0 % 999 hPa 0,0 l/m 0,4 km/h (0 Bft) 0 min
05.11.2014 03:28 22,3 C 7,5 C 7,7 C 86 % 0 % 999 hPa 0,0 l/m 0,0 km/h (0 Bft) 0 min
05.11.2014 03:31 22,2 C 7,5 C 8,0 C 86 % 0 % 999 hPa 0,0 l/m 1,8 km/h (1 Bft) 0 min
05.11.2014 03:34 22,3 C 7,5 C 7,7 C 86 % 0 % 999 hPa 0,0 l/m 0,3 km/h (0 Bft) 0 min
05.11.2014 03:37 22,3 C 7,5 C 7,6 C 86 % 0 % 999 hPa 0,0 l/m 0,0 km/h (0 Bft) 0 min
05.11.2014 03:40 22,2 C 7,5 C 7,8 C 86 % 0 % 999 hPa 0,0 l/m 0,0 km/h (0 Bft) 0 min
05.11.2014 03:43 22,3 C 7,4 C 7,6 C 86 % 0 % 999 hPa 0,0 l/m 0,3 km/h (0 Bft) 0 min
05.11.2014 03:46 22,3 C 7,5 C 7,6 C 86 % 0 % 999 hPa 0,0 l/m 0,0 km/h (0 Bft) 0 min
05.11.2014 03:49 22,2 C 7,5 C 7,8 C 86 % 0 % 999 hPa 0,0 l/m 2,1 km/h (1 Bft) 0 min
05.11.2014 03:52 22,2 C 7,5 C 8,0 C 86 % 0 % 999 hPa 0,0 l/m 0,0 km/h (0 Bft) 0 min
05.11.2014 03:55 22,3 C 7,5 C 8,1 C 86 % 0 % 999 hPa 0,0 l/m 0,6 km/h (0 Bft) 0 min
05.11.2014 03:58 22,2 C 7,5 C 8,0 C 86 % 0 % 999 hPa 0,0 l/m 0,3 km/h (0 Bft) 0 min
05.11.2014 04:01 22,2 C 7,4 C 7,8 C 86 % 0 % 999 hPa 0,0 l/m 0,3 km/h (0 Bft) 0 min
05.11.2014 04:04 22,3 C 7,4 C 7,8 C 86 % 0 % 999 hPa 0,0 l/m 0,3 km/h (0 Bft) 0 min
05.11.2014 04:07 22,3 C 7,3 C 7,8 C 86 % 0 % 999 hPa 0,0 l/m 0,3 km/h (0 Bft) 0 min
05.11.2014 04:10 22,2 C 7,3 C 7,7 C 86 % 0 % 999 hPa 0,0 l/m 0,4 km/h (0 Bft) 0 min
05.11.2014 04:13 22,2 C 7,3 C 7,7 C 87 % 0 % 999 hPa 0,0 l/m 0,1 km/h (0 Bft) 0 min
05.11.2014 04:16 22,3 C 7,3 C 7,7 C 87 % 0 % 999 hPa 0,0 l/m 0,1 km/h (0 Bft) 0 min
05.11.2014 04:19 22,3 C 7,4 C 7,8 C 87 % 0 % 999 hPa 0,0 l/m 0,1 km/h (0 Bft) 0 min
05.11.2014 04:22 22,3 C 7,5 C 7,7 C 87 % 0 % 999 hPa 0,0 l/m 0,0 km/h (0 Bft) 0 min
05.11.2014 04:25 22,2 C 7,5 C 7,8 C 87 % 0 % 999 hPa 0,0 l/m 0,0 km/h (0 Bft) 0 min
05.11.2014 04:28 22,2 C 7,5 C 7,8 C 87 % 0 % 999 hPa 0,0 l/m 0,0 km/h (0 Bft) 0 min
05.11.2014 04:31 22,3 C 7,6 C 7,9 C 87 % 0 % 999 hPa 0,0 l/m 0,0 km/h (0 Bft) 0 min
05.11.2014 04:34 22,3 C 7,5 C 7,8 C 87 % 0 % 999 hPa 0,0 l/m 0,0 km/h (0 Bft) 0 min
05.11.2014 04:37 22,2 C 7,5 C 7,8 C 87 % 0 % 999 hPa 0,0 l/m 0,0 km/h (0 Bft) 0 min
05.11.2014 04:40 22,3 C 7,5 C 7,7 C 87 % 0 % 999 hPa 0,0 l/m 0,0 km/h (0 Bft) 0 min
05.11.2014 04:43 22,3 C 7,5 C 7,7 C 87 % 0 % 999 hPa 0,0 l/m 1,8 km/h (1 Bft) 0 min
05.11.2014 04:46 22,3 C 7,5 C 7,7 C 87 % 0 % 999 hPa 0,0 l/m 0,0 km/h (0 Bft) 0 min
05.11.2014 04:49 22,2 C 7,4 C 7,6 C 87 % 0 % 999 hPa 0,0 l/m 0,0 km/h (0 Bft) 0 min
05.11.2014 04:52 22,3 C 7,3 C 7,6 C 87 % 0 % 999 hPa 0,0 l/m 0,0 km/h (0 Bft) 0 min
05.11.2014 04:55 22,3 C 7,3 C 7,6 C 87 % 0 % 999 hPa 0,0 l/m 0,4 km/h (0 Bft) 0 min
05.11.2014 04:58 22,3 C 7,3 C 7,6 C 87 % 0 % 999 hPa 0,0 l/m 0,2 km/h (0 Bft) 0 min
05.11.2014 05:01 22,2 C 7,3 C 7,6 C 87 % 0 % 999 hPa 0,0 l/m 0,4 km/h (0 Bft) 0 min
05.11.2014 05:04 22,2 C 7,3 C 7,6 C 88 % 0 % 999 hPa 0,0 l/m 2,1 km/h (1 Bft) 0 min
05.11.2014 05:07 22,2 C 7,3 C 7,8 C 88 % 0 % 999 hPa 0,0 l/m 1,8 km/h (1 Bft) 0 min
05.11.2014 05:10 22,3 C 7,4 C 7,8 C 88 % 0 % 999 hPa 0,0 l/m 4,4 km/h (1 Bft) 0 min
05.11.2014 05:13 22,3 C 7,4 C 7,8 C 88 % 0 % 999 hPa 0,0 l/m 2,4 km/h (1 Bft) 0 min
05.11.2014 05:16 22,2 C 7,5 C 7,8 C 88 % 0 % 999 hPa 0,0 l/m 0,3 km/h (0 Bft) 0 min
05.11.2014 05:19 22,3 C 7,6 C 7,8 C 88 % 0 % 999 hPa 0,0 l/m 0,4 km/h (0 Bft) 0 min
05.11.2014 05:22 22,3 C 7,6 C 7,8 C 88 % 0 % 999 hPa 0,0 l/m 0,0 km/h (0 Bft) 0 min
05.11.2014 05:25 22,3 C 7,6 C 7,7 C 88 % 0 % 999 hPa 0,0 l/m 0,0 km/h (0 Bft) 0 min
05.11.2014 05:28 22,3 C 7,6 C 7,7 C 88 % 0 % 999 hPa 0,0 l/m 0,0 km/h (0 Bft) 0 min
05.11.2014 05:31 22,3 C 7,5 C 7,7 C 88 % 0 % 999 hPa 0,0 l/m 0,0 km/h (0 Bft) 0 min
05.11.2014 05:34 22,3 C 7,5 C 7,5 C 87 % 0 % 999 hPa 0,0 l/m 0,0 km/h (0 Bft) 0 min
05.11.2014 05:37 22,3 C 7,5 C 7,7 C 87 % 0 % 999 hPa 0,0 l/m 0,0 km/h (0 Bft) 0 min
05.11.2014 05:40 22,2 C 7,4 C 7,6 C 87 % 0 % 999 hPa 0,0 l/m 1,3 km/h (1 Bft) 0 min
05.11.2014 05:43 22,3 C 7,3 C 7,5 C 88 % 0 % 999 hPa 0,0 l/m 0,0 km/h (0 Bft) 0 min
05.11.2014 05:46 22,2 C 7,4 C 7,5 C 88 % 0 % 999 hPa 0,0 l/m 0,0 km/h (0 Bft) 0 min
05.11.2014 05:49 22,2 C 7,5 C 7,7 C 88 % 0 % 999 hPa 0,0 l/m 0,0 km/h (0 Bft) 0 min
05.11.2014 05:52 22,2 C 7,5 C 7,6 C 88 % 0 % 999 hPa 0,0 l/m 0,0 km/h (0 Bft) 0 min
05.11.2014 05:55 22,2 C 7,4 C 7,6 C 88 % 0 % 999 hPa 0,0 l/m 0,3 km/h (0 Bft) 0 min
05.11.2014 05:58 22,2 C 7,3 C 7,5 C 88 % 0 % 999 hPa 0,0 l/m 0,3 km/h (0 Bft) 0 min
05.11.2014 06:01 22,2 C 7,3 C 7,5 C 88 % 0 % 999 hPa 0,0 l/m 1,9 km/h (1 Bft) 0 min
05.11.2014 06:04 22,3 C 7,3 C 7,5 C 88 % 0 % 999 hPa 0,0 l/m 1,9 km/h (1 Bft) 0 min
05.11.2014 06:07 22,2 C 7,3 C 7,5 C 88 % 0 % 999 hPa 0,0 l/m 0,7 km/h (0 Bft) 0 min
05.11.2014 06:10 22,2 C 7,3 C 7,8 C 88 % 0 % 999 hPa 0,0 l/m 1,8 km/h (1 Bft) 0 min
05.11.2014 06:13 22,2 C 7,3 C 7,6 C 88 % 0 % 999 hPa 0,0 l/m 0,3 km/h (0 Bft) 0 min
05.11.2014 06:16 22,2 C 7,5 C 7,9 C 88 % 0 % 999 hPa 0,0 l/m 0,0 km/h (0 Bft) 0 min
05.11.2014 06:19 22,2 C 7,5 C 7,8 C 88 % 0 % 999 hPa 0,0 l/m 0,0 km/h (0 Bft) 0 min
05.11.2014 06:22 22,3 C 7,6 C 7,8 C 88 % 0 % 999 hPa 0,0 l/m 0,1 km/h (0 Bft) 0 min
05.11.2014 06:25 22,2 C 7,6 C 7,5 C 88 % 0 % 999 hPa 0,0 l/m 0,0 km/h (0 Bft) 0 min
05.11.2014 06:28 22,2 C 7,6 C 7,7 C 88 % 0 % 999 hPa 0,0 l/m 2,6 km/h (1 Bft) 0 min
05.11.2014 06:31 22,2 C 7,6 C 7,6 C 88 % 0 % 999 hPa 0,0 l/m 0,7 km/h (0 Bft) 0 min
05.11.2014 06:34 22,3 C 7,5 C 7,6 C 88 % 0 % 999 hPa 0,0 l/m 0,6 km/h (0 Bft) 0 min
05.11.2014 06:37 22,3 C 7,4 C 7,5 C 88 % 0 % 999 hPa 0,0 l/m 0,3 km/h (0 Bft) 0 min
05.11.2014 06:40 22,3 C 7,4 C 7,5 C 88 % 0 % 999 hPa 0,0 l/m 2,2 km/h (1 Bft) 0 min
05.11.2014 06:43 22,3 C 7,4 C 7,7 C 88 % 0 % 999 hPa 0,0 l/m 0,4 km/h (0 Bft) 0 min
05.11.2014 06:46 22,3 C 7,6 C 7,8 C 88 % 0 % 999 hPa 0,0 l/m 2,6 km/h (1 Bft) 0 min
05.11.2014 06:49 22,3 C 7,6 C 7,7 C 88 % 0 % 999 hPa 0,0 l/m 3,2 km/h (1 Bft) 0 min
05.11.2014 06:52 22,4 C 7,6 C 8,0 C 88 % 0 % 999 hPa 0,0 l/m 3,2 km/h (1 Bft) 0 min
05.11.2014 06:55 22,3 C 7,7 C 7,6 C 88 % 1 % 999 hPa 0,0 l/m 1,9 km/h (1 Bft) 0 min
05.11.2014 06:58 22,3 C 7,7 C 7,6 C 88 % 1 % 999 hPa 0,0 l/m 0,4 km/h (0 Bft) 0 min
05.11.2014 07:01 22,3 C 7,6 C 7,8 C 88 % 1 % 999 hPa 0,0 l/m 1,6 km/h (1 Bft) 0 min
05.11.2014 07:04 22,1 C 7,6 C 7,9 C 88 % 2 % 999 hPa 0,0 l/m 0,9 km/h (0 Bft) 0 min
05.11.2014 07:07 21,8 C 7,5 C 7,7 C 88 % 2 % 999 hPa 0,0 l/m 0,0 km/h (0 Bft) 0 min
05.11.2014 07:10 21,6 C 7,5 C 7,7 C 88 % 2 % 1000 hPa 0,0 l/m 0,0 km/h (0 Bft) 0 min
05.11.2014 07:13 21,5 C 7,5 C 7,9 C 88 % 2 % 1000 hPa 0,0 l/m 0,2 km/h (0 Bft) 0 min
05.11.2014 07:16 21,5 C 7,5 C 7,7 C 88 % 2 % 1000 hPa 0,0 l/m 0,8 km/h (0 Bft) 0 min
05.11.2014 07:19 21,7 C 7,5 C 7,9 C 88 % 2 % 1000 hPa 0,0 l/m 3,1 km/h (1 Bft) 0 min
05.11.2014 07:22 21,8 C 7,5 C 7,6 C 88 % 2 % 1000 hPa 0,0 l/m 0,5 km/h (0 Bft) 0 min
05.11.2014 07:25 21,9 C 7,6 C 7,8 C 88 % 3 % 1000 hPa 0,0 l/m 1,7 km/h (1 Bft) 0 min
05.11.2014 07:28 21,9 C 7,6 C 8,0 C 88 % 3 % 1000 hPa 0,0 l/m 1,6 km/h (1 Bft) 0 min
05.11.2014 07:31 22,0 C 7,6 C 7,9 C 88 % 3 % 1000 hPa 0,0 l/m 1,9 km/h (1 Bft) 0 min
05.11.2014 07:34 22,0 C 7,7 C 8,0 C 88 % 3 % 1000 hPa 0,0 l/m 0,7 km/h (0 Bft) 0 min
05.11.2014 07:37 22,0 C 7,7 C 8,1 C 88 % 4 % 1000 hPa 0,0 l/m 0,9 km/h (0 Bft) 0 min
05.11.2014 07:40 22,0 C 7,7 C 8,6 C 88 % 5 % 1000 hPa 0,0 l/m 0,9 km/h (0 Bft) 0 min
05.11.2014 07:43 22,0 C 7,7 C 8,6 C 88 % 6 % 1001 hPa 0,0 l/m 0,2 km/h (0 Bft) 0 min
05.11.2014 07:46 22,0 C 7,8 C 8,1 C 88 % 7 % 1001 hPa 0,0 l/m 0,0 km/h (0 Bft) 0 min
05.11.2014 07:49 22,0 C 7,9 C 8,2 C 88 % 9 % 1001 hPa 0,0 l/m 0,1 km/h (0 Bft) 0 min
05.11.2014 07:52 22,0 C 7,9 C 8,6 C 88 % 8 % 1001 hPa 0,0 l/m 0,0 km/h (0 Bft) 0 min
05.11.2014 07:55 22,1 C 7,9 C 8,5 C 88 % 8 % 1001 hPa 0,0 l/m 0,0 km/h (0 Bft) 0 min
05.11.2014 07:58 22,1 C 7,9 C 8,5 C 88 % 8 % 1001 hPa 0,0 l/m 0,9 km/h (0 Bft) 0 min
05.11.2014 08:01 22,1 C 8,0 C 8,5 C 88 % 8 % 1001 hPa 0,0 l/m 11,6 km/h (2 Bft) 0 min
05.11.2014 08:04 22,1 C 8,0 C 8,5 C 88 % 8 % 1001 hPa 0,0 l/m 5,6 km/h (1 Bft) 0 min
05.11.2014 08:07 22,1 C 8,0 C 8,6 C 88 % 8 % 1001 hPa 0,0 l/m 0,2 km/h (0 Bft) 0 min
05.11.2014 08:10 22,1 C 8,1 C 8,9 C 88 % 8 % 1001 hPa 0,0 l/m 0,4 km/h (0 Bft) 0 min
05.11.2014 08:13 22,2 C 8,1 C 8,8 C 88 % 9 % 1001 hPa 0,0 l/m 0,5 km/h (0 Bft) 0 min
05.11.2014 08:16 22,2 C 8,1 C 8,8 C 88 % 9 % 1001 hPa 0,0 l/m 0,4 km/h (0 Bft) 0 min
05.11.2014 08:19 22,2 C 8,3 C 8,9 C 88 % 10 % 1002 hPa 0,0 l/m 3,3 km/h (1 Bft) 0 min
05.11.2014 08:22 22,2 C 8,4 C 9,2 C 87 % 10 % 1002 hPa 0,0 l/m 5,7 km/h (1 Bft) 0 min
05.11.2014 08:25 22,2 C 8,5 C 9,1 C 87 % 11 % 1002 hPa 0,0 l/m 1,2 km/h (1 Bft) 0 min
05.11.2014 08:28 22,2 C 8,5 C 9,1 C 87 % 12 % 1002 hPa 0,0 l/m 2,2 km/h (1 Bft) 0 min
05.11.2014 08:31 22,2 C 8,5 C 9,1 C 87 % 13 % 1002 hPa 0,0 l/m 0,7 km/h (0 Bft) 0 min
05.11.2014 08:34 22,2 C 8,5 C 9,1 C 87 % 13 % 1002 hPa 0,0 l/m 5,7 km/h (1 Bft) 0 min
05.11.2014 08:37 22,2 C 8,5 C 9,1 C 87 % 13 % 1002 hPa 0,0 l/m 5,7 km/h (1 Bft) 0 min
05.11.2014 08:40 22,1 C 8,6 C 9,1 C 87 % 14 % 1002 hPa 0,0 l/m 3,8 km/h (1 Bft) 0 min
05.11.2014 08:43 22,2 C 8,6 C 9,1 C 87 % 15 % 1002 hPa 0,0 l/m 0,1 km/h (0 Bft) 0 min
05.11.2014 08:46 22,2 C 8,6 C 9,1 C 87 % 16 % 1002 hPa 0,0 l/m 0,5 km/h (0 Bft) 0 min
05.11.2014 08:49 22,2 C 8,6 C 9,1 C 87 % 17 % 1002 hPa 0,0 l/m 0,4 km/h (0 Bft) 0 min
05.11.2014 08:52 22,2 C 8,6 C 9,1 C 87 % 17 % 1002 hPa 0,0 l/m 0,3 km/h (0 Bft) 0 min
05.11.2014 08:55 22,2 C 8,6 C 9,2 C 87 % 20 % 1002 hPa 0,0 l/m 0,4 km/h (0 Bft) 0 min
05.11.2014 08:58 22,2 C 8,7 C 9,2 C 86 % 21 % 1002 hPa 0,0 l/m 4,3 km/h (1 Bft) 0 min
05.11.2014 09:01 22,2 C 8,7 C 9,2 C 86 % 22 % 1002 hPa 0,0 l/m 0,3 km/h (0 Bft) 0 min
05.11.2014 09:04 22,2 C 8,8 C 9,2 C 86 % 22 % 1002 hPa 0,0 l/m 0,3 km/h (0 Bft) 0 min
05.11.2014 09:07 22,2 C 8,8 C 9,3 C 86 % 22 % 1002 hPa 0,0 l/m 0,3 km/h (0 Bft) 0 min
05.11.2014 09:10 22,2 C 8,8 C 9,2 C 86 % 22 % 1003 hPa 0,0 l/m 0,1 km/h (0 Bft) 0 min
05.11.2014 09:13 22,2 C 8,9 C 9,2 C 86 % 22 % 1003 hPa 0,0 l/m 0,0 km/h (0 Bft) 0 min
05.11.2014 09:16 22,2 C 8,9 C 9,4 C 86 % 22 % 1003 hPa 0,0 l/m 2,8 km/h (1 Bft) 0 min
05.11.2014 09:19 22,2 C 9,0 C 9,4 C 86 % 22 % 1003 hPa 0,0 l/m 2,8 km/h (1 Bft) 0 min
05.11.2014 09:22 22,2 C 9,1 C 9,6 C 86 % 24 % 1003 hPa 0,0 l/m 2,5 km/h (1 Bft) 0 min
05.11.2014 09:25 22,2 C 9,1 C 9,6 C 86 % 24 % 1003 hPa 0,0 l/m 6,8 km/h (2 Bft) 0 min
05.11.2014 09:28 22,2 C 9,2 C 9,7 C 86 % 26 % 1003 hPa 0,0 l/m 6,8 km/h (2 Bft) 0 min
05.11.2014 09:31 22,2 C 9,3 C 9,8 C 86 % 28 % 1003 hPa 0,0 l/m 0,3 km/h (0 Bft) 0 min
05.11.2014 09:34 22,3 C 9,3 C 9,8 C 85 % 29 % 1003 hPa 0,0 l/m 0,7 km/h (0 Bft) 0 min
05.11.2014 09:37 22,2 C 9,4 C 9,8 C 85 % 28 % 1003 hPa 0,0 l/m 1,0 km/h (0 Bft) 0 min
05.11.2014 09:40 22,2 C 9,5 C 9,8 C 85 % 28 % 1003 hPa 0,0 l/m 1,9 km/h (1 Bft) 0 min
05.11.2014 09:43 22,2 C 9,5 C 9,8 C 85 % 28 % 1003 hPa 0,0 l/m 8,3 km/h (2 Bft) 0 min
05.11.2014 09:46 22,2 C 9,6 C 9,8 C 84 % 28 % 1003 hPa 0,0 l/m 16,8 km/h (3 Bft) 0 min
05.11.2014 09:49 22,2 C 9,6 C 9,8 C 84 % 28 % 1003 hPa 0,0 l/m 13,8 km/h (3 Bft) 0 min
05.11.2014 09:52 22,2 C 9,6 C 9,9 C 83 % 28 % 1003 hPa 0,0 l/m 9,6 km/h (2 Bft) 0 min
05.11.2014 09:55 22,2 C 9,7 C 9,9 C 83 % 28 % 1003 hPa 0,0 l/m 5,9 km/h (2 Bft) 0 min
05.11.2014 09:58 22,2 C 9,7 C 9,9 C 83 % 28 % 1003 hPa 0,0 l/m 4,9 km/h (1 Bft) 0 min
05.11.2014 10:01 22,2 C 9,7 C 10,0 C 83 % 28 % 1003 hPa 0,0 l/m 3,6 km/h (1 Bft) 0 min
05.11.2014 10:04 22,2 C 9,7 C 10,0 C 83 % 29 % 1003 hPa 0,0 l/m 10,6 km/h (2 Bft) 0 min
05.11.2014 10:07 22,2 C 9,7 C 10,0 C 82 % 30 % 1003 hPa 0,0 l/m 10,2 km/h (2 Bft) 0 min
05.11.2014 10:10 22,2 C 9,8 C 10,1 C 82 % 31 % 1003 hPa 0,0 l/m 9,5 km/h (2 Bft) 0 min
05.11.2014 10:13 22,2 C 9,8 C 10,1 C 82 % 30 % 1003 hPa 0,0 l/m 5,7 km/h (1 Bft) 0 min
05.11.2014 10:16 22,2 C 9,8 C 10,1 C 82 % 30 % 1003 hPa 0,0 l/m 9,7 km/h (2 Bft) 0 min
05.11.2014 10:19 22,2 C 9,8 C 10,2 C 81 % 28 % 1004 hPa 0,0 l/m 4,7 km/h (1 Bft) 0 min
05.11.2014 10:22 22,2 C 9,9 C 10,1 C 81 % 27 % 1003 hPa 0,0 l/m 13,5 km/h (3 Bft) 0 min
05.11.2014 10:25 22,3 C 9,9 C 10,2 C 81 % 27 % 1003 hPa 0,0 l/m 13,5 km/h (3 Bft) 0 min
05.11.2014 10:28 22,2 C 10,0 C 10,2 C 81 % 28 % 1004 hPa 0,0 l/m 12,1 km/h (2 Bft) 0 min
05.11.2014 10:31 22,2 C 10,0 C 10,2 C 81 % 29 % 1004 hPa 0,0 l/m 11,1 km/h (2 Bft) 0 min
05.11.2014 10:34 22,2 C 10,0 C 10,2 C 80 % 29 % 1004 hPa 0,0 l/m 10,8 km/h (2 Bft) 0 min
05.11.2014 10:37 22,2 C 10,0 C 10,3 C 80 % 29 % 1004 hPa 0,0 l/m 9,9 km/h (2 Bft) 0 min
05.11.2014 10:40 22,2 C 10,0 C 10,3 C 80 % 29 % 1004 hPa 0,0 l/m 11,5 km/h (2 Bft) 0 min
05.11.2014 10:43 22,2 C 10,0 C 10,3 C 80 % 28 % 1004 hPa 0,0 l/m 8,0 km/h (2 Bft) 0 min
05.11.2014 10:46 22,2 C 10,0 C 10,2 C 80 % 28 % 1004 hPa 0,0 l/m 10,5 km/h (2 Bft) 0 min
05.11.2014 10:49 22,2 C 10,0 C 10,3 C 80 % 30 % 1004 hPa 0,0 l/m 12,5 km/h (3 Bft) 0 min
05.11.2014 10:52 22,2 C 10,0 C 10,3 C 80 % 30 % 1004 hPa 0,0 l/m 13,4 km/h (3 Bft) 0 min
05.11.2014 10:55 22,2 C 10,1 C 10,3 C 79 % 31 % 1004 hPa 0,0 l/m 17,9 km/h (3 Bft) 0 min
05.11.2014 10:58 22,0 C 10,1 C 10,3 C 80 % 31 % 1004 hPa 0,0 l/m 17,9 km/h (3 Bft) 0 min
05.11.2014 11:01 21,7 C 10,1 C 10,3 C 80 % 32 % 1004 hPa 0,0 l/m 11,8 km/h (2 Bft) 0 min
05.11.2014 11:04 21,5 C 10,1 C 10,4 C 80 % 32 % 1004 hPa 0,0 l/m 11,8 km/h (2 Bft) 0 min
05.11.2014 11:07 21,5 C 10,2 C 10,4 C 79 % 32 % 1004 hPa 0,0 l/m 9,8 km/h (2 Bft) 0 min
05.11.2014 11:10 21,6 C 10,3 C 10,5 C 79 % 32 % 1004 hPa 0,0 l/m 7,3 km/h (2 Bft) 0 min
05.11.2014 11:13 21,6 C 10,3 C 10,3 C 79 % 32 % 1004 hPa 0,0 l/m 13,9 km/h (3 Bft) 0 min
05.11.2014 11:16 21,8 C 10,3 C 10,5 C 79 % 43 % 1004 hPa 0,0 l/m 12,2 km/h (2 Bft) 0 min
05.11.2014 11:19 21,9 C 10,4 C 10,7 C 79 % 43 % 1004 hPa 0,0 l/m 9,3 km/h (2 Bft) 0 min
05.11.2014 11:22 21,9 C 10,5 C 10,6 C 79 % 42 % 1004 hPa 0,0 l/m 7,3 km/h (2 Bft) 0 min
05.11.2014 11:25 22,0 C 10,5 C 10,9 C 78 % 42 % 1004 hPa 0,0 l/m 8,9 km/h (2 Bft) 0 min
05.11.2014 11:28 22,0 C 10,5 C 10,8 C 78 % 46 % 1004 hPa 0,0 l/m 11,4 km/h (2 Bft) 0 min
05.11.2014 11:31 22,0 C 10,6 C 10,7 C 78 % 48 % 1004 hPa 0,0 l/m 12,1 km/h (2 Bft) 0 min
05.11.2014 11:34 22,0 C 10,6 C 10,6 C 77 % 50 % 1004 hPa 0,0 l/m 11,8 km/h (2 Bft) 0 min
05.11.2014 11:37 22,0 C 10,6 C 10,7 C 77 % 51 % 1004 hPa 0,0 l/m 9,9 km/h (2 Bft) 0 min
05.11.2014 11:40 22,0 C 10,7 C 11,0 C 77 % 51 % 1004 hPa 0,0 l/m 10,4 km/h (2 Bft) 0 min
05.11.2014 11:43 22,0 C 10,7 C 10,9 C 77 % 39 % 1004 hPa 0,0 l/m 9,9 km/h (2 Bft) 0 min
05.11.2014 11:46 22,0 C 10,7 C 10,8 C 77 % 44 % 1004 hPa 0,0 l/m 8,3 km/h (2 Bft) 0 min
05.11.2014 11:49 22,1 C 10,8 C 11,0 C 76 % 44 % 1004 hPa 0,0 l/m 6,6 km/h (2 Bft) 0 min
05.11.2014 11:52 22,1 C 10,9 C 11,3 C 76 % 30 % 1004 hPa 0,0 l/m 9,6 km/h (2 Bft) 0 min
05.11.2014 11:55 22,1 C 10,8 C 11,3 C 76 % 32 % 1004 hPa 0,0 l/m 7,3 km/h (2 Bft) 0 min
05.11.2014 11:58 22,1 C 10,9 C 11,2 C 76 % 32 % 1004 hPa 0,0 l/m 7,2 km/h (2 Bft) 0 min
05.11.2014 12:01 22,1 C 10,9 C 10,9 C 76 % 35 % 1004 hPa 0,0 l/m 6,7 km/h (2 Bft) 0 min
05.11.2014 12:04 22,1 C 11,0 C 10,9 C 76 % 35 % 1004 hPa 0,0 l/m 9,1 km/h (2 Bft) 0 min
05.11.2014 12:07 22,1 C 10,9 C 11,3 C 75 % 44 % 1004 hPa 0,0 l/m 9,2 km/h (2 Bft) 0 min
05.11.2014 12:10 22,1 C 11,0 C 11,4 C 75 % 38 % 1004 hPa 0,0 l/m 3,1 km/h (1 Bft) 0 min
05.11.2014 12:13 22,1 C 11,1 C 11,0 C 75 % 38 % 1004 hPa 0,0 l/m 8,8 km/h (2 Bft) 0 min
05.11.2014 12:16 22,1 C 11,1 C 11,1 C 75 % 37 % 1004 hPa 0,0 l/m 9,0 km/h (2 Bft) 0 min
05.11.2014 12:19 22,1 C 11,1 C 11,0 C 74 % 35 % 1004 hPa 0,0 l/m 7,5 km/h (2 Bft) 0 min
05.11.2014 12:22 22,1 C 11,0 C 10,8 C 74 % 33 % 1004 hPa 0,0 l/m 10,6 km/h (2 Bft) 0 min
05.11.2014 12:25 22,1 C 11,0 C 11,0 C 74 % 35 % 1004 hPa 0,0 l/m 10,6 km/h (2 Bft) 0 min
05.11.2014 12:28 22,1 C 11,0 C 11,0 C 74 % 31 % 1004 hPa 0,0 l/m 6,0 km/h (2 Bft) 0 min
05.11.2014 12:31 22,1 C 11,1 C 11,0 C 74 % 34 % 1004 hPa 0,0 l/m 0,3 km/h (0 Bft) 0 min
05.11.2014 12:34 22,1 C 11,1 C 11,0 C 74 % 34 % 1004 hPa 0,0 l/m 0,5 km/h (0 Bft) 0 min
05.11.2014 12:37 22,1 C 11,2 C 11,0 C 74 % 26 % 1004 hPa 0,0 l/m 0,1 km/h (0 Bft) 0 min
05.11.2014 12:40 22,1 C 11,2 C 11,1 C 74 % 23 % 1004 hPa 0,0 l/m 2,5 km/h (1 Bft) 0 min
05.11.2014 12:43 22,1 C 11,2 C 11,1 C 74 % 22 % 1004 hPa 0,0 l/m 7,6 km/h (2 Bft) 0 min
05.11.2014 12:46 22,1 C 11,1 C 11,0 C 73 % 26 % 1004 hPa 0,0 l/m 7,9 km/h (2 Bft) 0 min
05.11.2014 12:49 22,2 C 11,1 C 11,2 C 73 % 28 % 1004 hPa 0,0 l/m 5,7 km/h (1 Bft) 0 min
05.11.2014 12:52 22,2 C 11,1 C 11,0 C 74 % 31 % 1004 hPa 0,0 l/m 6,3 km/h (2 Bft) 0 min
05.11.2014 12:55 22,2 C 11,1 C 11,1 C 74 % 33 % 1004 hPa 0,0 l/m 5,2 km/h (1 Bft) 0 min
05.11.2014 12:58 22,2 C 11,2 C 11,1 C 73 % 29 % 1004 hPa 0,0 l/m 5,2 km/h (1 Bft) 0 min
05.11.2014 13:01 22,2 C 11,2 C 11,1 C 73 % 26 % 1004 hPa 0,0 l/m 9,3 km/h (2 Bft) 0 min
05.11.2014 13:04 22,2 C 11,2 C 11,1 C 73 % 28 % 1004 hPa 0,0 l/m 5,7 km/h (1 Bft) 0 min
05.11.2014 13:07 22,2 C 11,1 C 11,3 C 73 % 31 % 1004 hPa 0,0 l/m 0,3 km/h (0 Bft) 0 min
05.11.2014 13:10 22,1 C 11,2 C 11,4 C 73 % 34 % 1004 hPa 0,0 l/m 1,0 km/h (0 Bft) 0 min
05.11.2014 13:13 22,1 C 11,3 C 11,4 C 72 % 34 % 1004 hPa 0,0 l/m 4,2 km/h (1 Bft) 0 min
05.11.2014 13:16 22,2 C 11,3 C 11,3 C 72 % 34 % 1004 hPa 0,0 l/m 1,8 km/h (1 Bft) 0 min
05.11.2014 13:19 22,2 C 11,3 C 11,4 C 72 % 30 % 1004 hPa 0,0 l/m 0,3 km/h (0 Bft) 0 min
05.11.2014 13:22 22,1 C 11,4 C 11,4 C 72 % 26 % 1004 hPa 0,0 l/m 0,0 km/h (0 Bft) 0 min
05.11.2014 13:25 22,1 C 11,4 C 11,1 C 72 % 25 % 1004 hPa 0,0 l/m 5,8 km/h (2 Bft) 0 min
05.11.2014 13:28 22,1 C 11,4 C 11,3 C 72 % 26 % 1004 hPa 0,0 l/m 5,8 km/h (2 Bft) 0 min
05.11.2014 13:31 22,1 C 11,4 C 11,3 C 72 % 26 % 1004 hPa 0,0 l/m 5,8 km/h (2 Bft) 0 min
05.11.2014 13:34 22,1 C 11,4 C 11,3 C 72 % 24 % 1004 hPa 0,0 l/m 4,5 km/h (1 Bft) 0 min
05.11.2014 13:37 22,1 C 11,4 C 11,3 C 72 % 25 % 1004 hPa 0,0 l/m 6,7 km/h (2 Bft) 0 min
05.11.2014 13:40 22,1 C 11,3 C 11,3 C 72 % 25 % 1004 hPa 0,0 l/m 4,2 km/h (1 Bft) 0 min
05.11.2014 13:43 22,1 C 11,3 C 11,3 C 71 % 23 % 1004 hPa 0,0 l/m 5,5 km/h (1 Bft) 0 min
05.11.2014 13:46 22,1 C 11,3 C 11,4 C 71 % 24 % 1004 hPa 0,0 l/m 5,5 km/h (1 Bft) 0 min
05.11.2014 13:49 22,1 C 11,3 C 11,4 C 71 % 25 % 1004 hPa 0,0 l/m 3,0 km/h (1 Bft) 0 min
05.11.2014 13:52 22,2 C 11,4 C 11,2 C 71 % 23 % 1004 hPa 0,0 l/m 2,8 km/h (1 Bft) 0 min
05.11.2014 13:55 22,2 C 11,4 C 11,4 C 71 % 26 % 1004 hPa 0,0 l/m 3,1 km/h (1 Bft) 0 min
05.11.2014 13:58 22,2 C 11,4 C 11,4 C 71 % 24 % 1004 hPa 0,0 l/m 1,0 km/h (0 Bft) 0 min
05.11.2014 14:01 22,2 C 11,4 C 11,4 C 71 % 23 % 1004 hPa 0,0 l/m 0,0 km/h (0 Bft) 0 min
05.11.2014 14:04 22,2 C 11,5 C 11,4 C 71 % 21 % 1004 hPa 0,0 l/m 1,0 km/h (0 Bft) 0 min
05.11.2014 14:07 22,2 C 11,4 C 11,3 C 71 % 20 % 1004 hPa 0,0 l/m 2,7 km/h (1 Bft) 0 min
05.11.2014 14:10 22,2 C 11,4 C 11,2 C 71 % 21 % 1004 hPa 0,0 l/m 2,8 km/h (1 Bft) 0 min
05.11.2014 14:13 22,2 C 11,4 C 11,5 C 71 % 23 % 1004 hPa 0,0 l/m 1,4 km/h (1 Bft) 0 min
05.11.2014 14:16 22,2 C 11,4 C 11,1 C 71 % 22 % 1004 hPa 0,0 l/m 0,1 km/h (0 Bft) 0 min
05.11.2014 14:19 22,2 C 11,5 C 11,3 C 71 % 19 % 1004 hPa 0,0 l/m 0,0 km/h (0 Bft) 0 min
05.11.2014 14:22 22,2 C 11,5 C 11,3 C 71 % 19 % 1004 hPa 0,0 l/m 0,4 km/h (0 Bft) 0 min
05.11.2014 14:25 22,2 C 11,5 C 11,3 C 71 % 16 % 1004 hPa 0,0 l/m 3,0 km/h (1 Bft) 0 min
05.11.2014 14:28 22,2 C 11,4 C 11,3 C 71 % 18 % 1004 hPa 0,0 l/m 5,9 km/h (2 Bft) 0 min
05.11.2014 14:31 22,2 C 11,4 C 11,1 C 71 % 14 % 1004 hPa 0,0 l/m 6,5 km/h (2 Bft) 0 min
05.11.2014 14:34 22,2 C 11,3 C 11,1 C 71 % 14 % 1004 hPa 0,0 l/m 4,1 km/h (1 Bft) 0 min
05.11.2014 14:37 22,2 C 11,3 C 11,3 C 71 % 15 % 1004 hPa 0,0 l/m 1,8 km/h (1 Bft) 0 min
05.11.2014 14:40 22,2 C 11,3 C 11,3 C 71 % 17 % 1004 hPa 0,0 l/m 2,1 km/h (1 Bft) 0 min
05.11.2014 14:43 22,2 C 11,3 C 11,3 C 71 % 19 % 1004 hPa 0,0 l/m 3,4 km/h (1 Bft) 0 min
05.11.2014 14:46 22,2 C 11,3 C 11,3 C 71 % 21 % 1004 hPa 0,0 l/m 2,2 km/h (1 Bft) 0 min
05.11.2014 14:49 22,1 C 11,4 C 11,3 C 71 % 17 % 1004 hPa 0,0 l/m 3,0 km/h (1 Bft) 0 min
05.11.2014 14:52 22,1 C 11,4 C 11,3 C 71 % 15 % 1004 hPa 0,0 l/m 5,0 km/h (1 Bft) 0 min
05.11.2014 14:55 22,1 C 11,3 C 11,3 C 71 % 14 % 1004 hPa 0,0 l/m 5,0 km/h (1 Bft) 0 min
05.11.2014 14:58 22,1 C 11,3 C 11,2 C 71 % 14 % 1005 hPa 0,0 l/m 1,1 km/h (1 Bft) 0 min
05.11.2014 15:01 22,1 C 11,3 C 11,3 C 70 % 16 % 1005 hPa 0,0 l/m 0,9 km/h (0 Bft) 0 min
05.11.2014 15:04 22,1 C 11,3 C 11,3 C 71 % 16 % 1004 hPa 0,0 l/m 0,0 km/h (0 Bft) 0 min
05.11.2014 15:07 22,2 C 11,3 C 11,3 C 71 % 21 % 1005 hPa 0,0 l/m 0,4 km/h (0 Bft) 0 min
05.11.2014 15:10 22,2 C 11,3 C 11,3 C 70 % 20 % 1004 hPa 0,0 l/m 0,6 km/h (0 Bft) 0 min
05.11.2014 15:13 22,2 C 11,4 C 11,4 C 71 % 18 % 1004 hPa 0,0 l/m 4,6 km/h (1 Bft) 0 min
05.11.2014 15:16 22,2 C 11,4 C 11,3 C 71 % 17 % 1004 hPa 0,0 l/m 0,3 km/h (0 Bft) 0 min
05.11.2014 15:19 22,2 C 11,4 C 11,3 C 70 % 16 % 1004 hPa 0,0 l/m 0,4 km/h (0 Bft) 0 min
05.11.2014 15:22 22,2 C 11,4 C 11,4 C 70 % 15 % 1004 hPa 0,0 l/m 0,2 km/h (0 Bft) 0 min
05.11.2014 15:25 22,2 C 11,4 C 11,3 C 71 % 18 % 1004 hPa 0,0 l/m 0,3 km/h (0 Bft) 0 min
05.11.2014 15:28 22,2 C 11,4 C 11,3 C 71 % 19 % 1004 hPa 0,0 l/m 0,3 km/h (0 Bft) 0 min
05.11.2014 15:31 22,1 C 11,4 C 11,3 C 71 % 19 % 1004 hPa 0,0 l/m 0,7 km/h (0 Bft) 0 min
05.11.2014 15:34 22,1 C 11,4 C 11,3 C 70 % 20 % 1004 hPa 0,0 l/m 2,0 km/h (1 Bft) 0 min
05.11.2014 15:37 22,2 C 11,4 C 11,3 C 71 % 17 % 1004 hPa 0,0 l/m 3,4 km/h (1 Bft) 0 min
05.11.2014 15:40 22,1 C 11,3 C 11,2 C 71 % 17 % 1004 hPa 0,0 l/m 1,6 km/h (1 Bft) 0 min
05.11.2014 15:43 22,2 C 11,3 C 11,1 C 71 % 6 % 1004 hPa 0,0 l/m 1,6 km/h (1 Bft) 0 min
05.11.2014 15:46 22,1 C 11,2 C 11,1 C 71 % 5 % 1004 hPa 0,0 l/m 3,3 km/h (1 Bft) 0 min
05.11.2014 15:49 22,1 C 11,2 C 11,0 C 71 % 5 % 1004 hPa 0,0 l/m 0,0 km/h (0 Bft) 0 min
05.11.2014 15:52 22,1 C 11,1 C 10,9 C 71 % 5 % 1004 hPa 0,0 l/m 0,0 km/h (0 Bft) 0 min
05.11.2014 15:55 22,1 C 11,1 C 10,9 C 72 % 5 % 1004 hPa 0,0 l/m 0,0 km/h (0 Bft) 0 min
05.11.2014 15:58 22,1 C 11,0 C 10,9 C 72 % 4 % 1004 hPa 0,0 l/m 0,0 km/h (0 Bft) 0 min
05.11.2014 16:01 22,1 C 11,0 C 10,8 C 72 % 3 % 1004 hPa 0,0 l/m 0,0 km/h (0 Bft) 0 min
05.11.2014 16:04 22,1 C 11,0 C 10,8 C 72 % 3 % 1004 hPa 0,0 l/m 0,3 km/h (0 Bft) 0 min
05.11.2014 16:07 22,1 C 10,9 C 10,8 C 73 % 2 % 1004 hPa 0,0 l/m 0,7 km/h (0 Bft) 0 min
05.11.2014 16:10 22,2 C 10,9 C 10,7 C 73 % 2 % 1004 hPa 0,0 l/m 0,7 km/h (0 Bft) 0 min
05.11.2014 16:13 22,2 C 10,9 C 10,7 C 73 % 2 % 1004 hPa 0,0 l/m 0,0 km/h (0 Bft) 0 min
05.11.2014 16:16 22,2 C 10,9 C 10,7 C 73 % 2 % 1004 hPa 0,0 l/m 0,0 km/h (0 Bft) 0 min
05.11.2014 16:19 22,2 C 10,9 C 10,7 C 73 % 1 % 1004 hPa 0,0 l/m 0,9 km/h (0 Bft) 0 min
05.11.2014 16:22 22,2 C 10,8 C 10,7 C 74 % 1 % 1004 hPa 0,0 l/m 0,3 km/h (0 Bft) 0 min
05.11.2014 16:25 22,2 C 10,8 C 10,7 C 74 % 1 % 1004 hPa 0,0 l/m 0,0 km/h (0 Bft) 0 min
05.11.2014 16:28 22,2 C 10,8 C 10,7 C 74 % 1 % 1004 hPa 0,0 l/m 0,0 km/h (0 Bft) 0 min
05.11.2014 16:31 22,2 C 10,8 C 10,7 C 74 % 1 % 1004 hPa 0,0 l/m 2,4 km/h (1 Bft) 0 min
05.11.2014 16:34 22,2 C 10,8 C 10,6 C 74 % 1 % 1004 hPa 0,0 l/m 0,0 km/h (0 Bft) 0 min
05.11.2014 16:37 22,2 C 10,7 C 10,6 C 75 % 1 % 1004 hPa 0,0 l/m 0,0 km/h (0 Bft) 0 min
05.11.2014 16:40 22,2 C 10,7 C 10,6 C 75 % 1 % 1004 hPa 0,0 l/m 0,0 km/h (0 Bft) 0 min
05.11.2014 16:43 22,2 C 10,7 C 10,5 C 75 % 0 % 1004 hPa 0,0 l/m 0,0 km/h (0 Bft) 0 min
05.11.2014 16:46 22,2 C 10,7 C 10,6 C 75 % 0 % 1004 hPa 0,0 l/m 0,0 km/h (0 Bft) 0 min
05.11.2014 16:49 22,2 C 10,7 C 10,6 C 75 % 0 % 1004 hPa 0,0 l/m 0,0 km/h (0 Bft) 0 min
05.11.2014 16:52 22,2 C 10,6 C 10,5 C 76 % 0 % 1004 hPa 0,0 l/m 0,0 km/h (0 Bft) 0 min
05.11.2014 16:55 22,2 C 10,6 C 10,5 C 76 % 0 % 1004 hPa 0,0 l/m 0,0 km/h (0 Bft) 0 min
05.11.2014 16:58 22,2 C 10,6 C 10,5 C 76 % 0 % 1004 hPa 0,0 l/m 0,0 km/h (0 Bft) 0 min
05.11.2014 17:01 22,2 C 10,5 C 10,4 C 76 % 0 % 1004 hPa 0,0 l/m 0,0 km/h (0 Bft) 0 min
05.11.2014 17:04 22,1 C 10,5 C 10,4 C 76 % 0 % 1004 hPa 0,0 l/m 0,0 km/h (0 Bft) 0 min
05.11.2014 17:07 22,1 C 10,5 C 10,4 C 76 % 0 % 1004 hPa 0,0 l/m 0,0 km/h (0 Bft) 0 min
05.11.2014 17:10 22,1 C 10,5 C 10,4 C 76 % 0 % 1004 hPa 0,0 l/m 3,0 km/h (1 Bft) 0 min
05.11.2014 17:13 22,2 C 10,5 C 10,5 C 77 % 0 % 1004 hPa 0,0 l/m 2,9 km/h (1 Bft) 0 min
05.11.2014 17:16 22,1 C 10,4 C 10,4 C 77 % 0 % 1004 hPa 0,0 l/m 2,2 km/h (1 Bft) 0 min
05.11.2014 17:19 22,1 C 10,4 C 10,5 C 77 % 0 % 1004 hPa 0,0 l/m 1,2 km/h (1 Bft) 0 min
05.11.2014 17:22 22,1 C 10,4 C 10,5 C 77 % 0 % 1004 hPa 0,0 l/m 0,0 km/h (0 Bft) 0 min
05.11.2014 17:25 22,1 C 10,4 C 10,4 C 77 % 0 % 1004 hPa 0,0 l/m 2,0 km/h (1 Bft) 0 min
05.11.2014 17:28 22,1 C 10,4 C 10,4 C 78 % 0 % 1004 hPa 0,0 l/m 4,0 km/h (1 Bft) 0 min
05.11.2014 17:31 22,1 C 10,4 C 10,5 C 78 % 0 % 1005 hPa 0,0 l/m 0,4 km/h (0 Bft) 0 min
05.11.2014 17:34 22,1 C 10,4 C 10,4 C 78 % 0 % 1005 hPa 0,0 l/m 0,1 km/h (0 Bft) 0 min
05.11.2014 17:37 22,1 C 10,4 C 10,4 C 78 % 0 % 1005 hPa 0,0 l/m 3,6 km/h (1 Bft) 0 min
05.11.2014 17:40 22,1 C 10,4 C 10,4 C 78 % 0 % 1005 hPa 0,0 l/m 0,0 km/h (0 Bft) 0 min
05.11.2014 17:43 22,1 C 10,4 C 10,4 C 78 % 0 % 1005 hPa 0,0 l/m 0,4 km/h (0 Bft) 0 min
05.11.2014 17:46 22,1 C 10,4 C 10,4 C 78 % 0 % 1005 hPa 0,0 l/m 0,3 km/h (0 Bft) 0 min
05.11.2014 17:49 22,1 C 10,4 C 10,4 C 78 % 0 % 1005 hPa 0,0 l/m 3,9 km/h (1 Bft) 0 min
05.11.2014 17:52 22,1 C 10,4 C 10,4 C 78 % 0 % 1005 hPa 0,0 l/m 0,4 km/h (0 Bft) 0 min
05.11.2014 17:55 22,1 C 10,4 C 10,4 C 78 % 0 % 1005 hPa 0,0 l/m 3,1 km/h (1 Bft) 0 min
05.11.2014 17:58 22,1 C 10,3 C 10,3 C 79 % 0 % 1005 hPa 0,0 l/m 3,3 km/h (1 Bft) 0 min
05.11.2014 18:01 22,1 C 10,3 C 10,5 C 79 % 0 % 1005 hPa 0,0 l/m 0,0 km/h (0 Bft) 0 min
05.11.2014 18:04 22,1 C 10,3 C 10,3 C 79 % 0 % 1005 hPa 0,0 l/m 2,6 km/h (1 Bft) 0 min
05.11.2014 18:07 22,1 C 10,3 C 10,3 C 79 % 0 % 1005 hPa 0,0 l/m 0,0 km/h (0 Bft) 0 min
05.11.2014 18:10 22,2 C 10,3 C 10,2 C 79 % 0 % 1005 hPa 0,0 l/m 0,1 km/h (0 Bft) 0 min
05.11.2014 18:13 22,1 C 10,2 C 10,2 C 79 % 0 % 1005 hPa 0,0 l/m 0,1 km/h (0 Bft) 0 min
05.11.2014 18:16 22,2 C 10,2 C 10,3 C 79 % 0 % 1005 hPa 0,0 l/m 0,0 km/h (0 Bft) 0 min
05.11.2014 18:19 22,2 C 10,2 C 10,3 C 79 % 0 % 1005 hPa 0,0 l/m 0,0 km/h (0 Bft) 0 min
05.11.2014 18:22 22,2 C 10,2 C 10,2 C 79 % 0 % 1005 hPa 0,0 l/m 0,0 km/h (0 Bft) 0 min
05.11.2014 18:25 22,2 C 10,1 C 10,2 C 79 % 0 % 1005 hPa 0,0 l/m 3,3 km/h (1 Bft) 0 min
05.11.2014 18:28 22,2 C 10,1 C 10,2 C 79 % 0 % 1006 hPa 0,0 l/m 0,4 km/h (0 Bft) 0 min
05.11.2014 18:31 22,2 C 10,1 C 10,2 C 79 % 0 % 1005 hPa 0,0 l/m 3,0 km/h (1 Bft) 0 min
05.11.2014 18:34 22,2 C 10,1 C 10,2 C 80 % 0 % 1005 hPa 0,0 l/m 4,1 km/h (1 Bft) 0 min
05.11.2014 18:37 22,2 C 10,1 C 10,2 C 80 % 0 % 1005 hPa 0,0 l/m 0,1 km/h (0 Bft) 0 min
05.11.2014 18:40 22,2 C 10,1 C 10,3 C 80 % 0 % 1005 hPa 0,0 l/m 0,0 km/h (0 Bft) 0 min
05.11.2014 18:43 22,2 C 10,1 C 10,2 C 80 % 0 % 1005 hPa 0,0 l/m 0,1 km/h (0 Bft) 0 min
05.11.2014 18:46 22,2 C 10,2 C 10,1 C 80 % 0 % 1005 hPa 0,0 l/m 0,0 km/h (0 Bft) 0 min
05.11.2014 18:49 22,2 C 10,2 C 10,1 C 80 % 0 % 1005 hPa 0,0 l/m 0,0 km/h (0 Bft) 0 min
05.11.2014 18:52 22,1 C 10,1 C 10,2 C 80 % 0 % 1005 hPa 0,0 l/m 0,0 km/h (0 Bft) 0 min
05.11.2014 18:55 22,1 C 10,1 C 10,2 C 80 % 0 % 1005 hPa 0,0 l/m 0,0 km/h (0 Bft) 0 min
05.11.2014 18:58 22,1 C 10,1 C 10,1 C 80 % 0 % 1005 hPa 0,0 l/m 0,0 km/h (0 Bft) 0 min
05.11.2014 19:01 22,1 C 10,1 C 10,0 C 80 % 0 % 1005 hPa 0,0 l/m 0,0 km/h (0 Bft) 0 min
05.11.2014 19:04 22,1 C 10,1 C 10,0 C 80 % 0 % 1005 hPa 0,0 l/m 0,0 km/h (0 Bft) 0 min
05.11.2014 19:07 22,1 C 10,0 C 9,8 C 80 % 0 % 1006 hPa 0,0 l/m 0,0 km/h (0 Bft) 0 min
05.11.2014 19:10 22,2 C 10,0 C 9,9 C 80 % 0 % 1006 hPa 0,0 l/m 0,0 km/h (0 Bft) 0 min
05.11.2014 19:13 22,2 C 10,0 C 10,0 C 81 % 0 % 1006 hPa 0,0 l/m 0,0 km/h (0 Bft) 0 min
05.11.2014 19:16 22,2 C 10,0 C 10,0 C 81 % 0 % 1006 hPa 0,0 l/m 0,0 km/h (0 Bft) 0 min
05.11.2014 19:19 22,2 C 10,0 C 10,1 C 81 % 0 % 1006 hPa 0,0 l/m 0,0 km/h (0 Bft) 0 min
05.11.2014 19:22 22,2 C 10,0 C 10,1 C 81 % 0 % 1006 hPa 0,0 l/m 0,0 km/h (0 Bft) 0 min
05.11.2014 19:25 22,1 C 10,0 C 9,9 C 81 % 0 % 1006 hPa 0,0 l/m 1,2 km/h (1 Bft) 0 min
05.11.2014 19:28 22,2 C 10,0 C 9,9 C 81 % 0 % 1006 hPa 0,0 l/m 4,3 km/h (1 Bft) 0 min
05.11.2014 19:31 22,1 C 9,9 C 10,0 C 81 % 0 % 1006 hPa 0,0 l/m 0,0 km/h (0 Bft) 0 min
05.11.2014 19:34 22,2 C 9,8 C 9,8 C 82 % 0 % 1006 hPa 0,0 l/m 0,1 km/h (0 Bft) 0 min
05.11.2014 19:37 22,1 C 9,8 C 9,7 C 82 % 0 % 1006 hPa 0,0 l/m 0,4 km/h (0 Bft) 0 min
05.11.2014 19:40 22,1 C 9,7 C 9,7 C 82 % 0 % 1006 hPa 0,0 l/m 0,4 km/h (0 Bft) 0 min
05.11.2014 19:43 22,2 C 9,7 C 9,7 C 82 % 0 % 1006 hPa 0,0 l/m 0,5 km/h (0 Bft) 0 min
05.11.2014 19:46 22,1 C 9,7 C 9,9 C 82 % 0 % 1006 hPa 0,0 l/m 0,3 km/h (0 Bft) 0 min
05.11.2014 19:49 22,1 C 9,7 C 9,7 C 82 % 0 % 1006 hPa 0,0 l/m 0,0 km/h (0 Bft) 0 min
05.11.2014 19:52 22,2 C 9,6 C 9,7 C 82 % 0 % 1006 hPa 0,0 l/m 2,3 km/h (1 Bft) 0 min
05.11.2014 19:55 22,2 C 9,6 C 9,7 C 82 % 0 % 1006 hPa 0,0 l/m 0,0 km/h (0 Bft) 0 min
05.11.2014 19:58 22,2 C 9,6 C 9,7 C 83 % 0 % 1006 hPa 0,0 l/m 5,4 km/h (1 Bft) 0 min
05.11.2014 20:01 22,2 C 9,6 C 9,9 C 83 % 0 % 1006 hPa 0,0 l/m 3,6 km/h (1 Bft) 0 min
05.11.2014 20:04 22,2 C 9,6 C 9,9 C 83 % 0 % 1006 hPa 0,0 l/m 3,3 km/h (1 Bft) 0 min
05.11.2014 20:07 22,2 C 9,6 C 9,7 C 83 % 0 % 1006 hPa 0,0 l/m 0,0 km/h (0 Bft) 0 min
05.11.2014 20:10 22,2 C 9,6 C 9,7 C 83 % 0 % 1006 hPa 0,0 l/m 0,1 km/h (0 Bft) 0 min
05.11.2014 20:13 22,2 C 9,6 C 9,7 C 83 % 0 % 1006 hPa 0,0 l/m 0,0 km/h (0 Bft) 0 min
05.11.2014 20:16 22,2 C 9,6 C 9,7 C 83 % 0 % 1006 hPa 0,0 l/m 0,0 km/h (0 Bft) 0 min
05.11.2014 20:19 22,2 C 9,6 C 9,7 C 83 % 0 % 1006 hPa 0,0 l/m 0,0 km/h (0 Bft) 0 min
05.11.2014 20:22 22,2 C 9,6 C 9,8 C 83 % 0 % 1006 hPa 0,0 l/m 0,0 km/h (0 Bft) 0 min
05.11.2014 20:25 22,2 C 9,6 C 9,7 C 84 % 0 % 1006 hPa 0,0 l/m 0,0 km/h (0 Bft) 0 min
05.11.2014 20:28 22,2 C 9,6 C 9,7 C 84 % 0 % 1006 hPa 0,0 l/m 0,0 km/h (0 Bft) 0 min
05.11.2014 20:31 22,2 C 9,6 C 9,9 C 84 % 0 % 1007 hPa 0,0 l/m 3,9 km/h (1 Bft) 0 min
05.11.2014 20:34 22,1 C 9,6 C 9,9 C 84 % 0 % 1007 hPa 0,0 l/m 3,9 km/h (1 Bft) 0 min
05.11.2014 20:37 22,2 C 9,6 C 9,9 C 84 % 0 % 1007 hPa 0,0 l/m 0,0 km/h (0 Bft) 0 min
05.11.2014 20:40 22,2 C 9,6 C 9,9 C 84 % 0 % 1007 hPa 0,0 l/m 0,0 km/h (0 Bft) 0 min
05.11.2014 20:43 22,1 C 9,7 C 10,0 C 84 % 0 % 1007 hPa 0,0 l/m 1,9 km/h (1 Bft) 0 min
05.11.2014 20:46 22,1 C 9,7 C 10,0 C 85 % 0 % 1007 hPa 0,0 l/m 5,1 km/h (1 Bft) 0 min
05.11.2014 20:49 22,2 C 9,7 C 10,1 C 85 % 0 % 1007 hPa 0,0 l/m 0,8 km/h (0 Bft) 0 min
05.11.2014 20:52 22,1 C 9,7 C 10,0 C 85 % 0 % 1007 hPa 0,0 l/m 0,6 km/h (0 Bft) 0 min
05.11.2014 20:55 22,1 C 9,8 C 10,1 C 85 % 0 % 1007 hPa 0,0 l/m 5,0 km/h (1 Bft) 0 min
05.11.2014 20:58 22,1 C 9,8 C 10,2 C 86 % 0 % 1007 hPa 0,0 l/m 6,4 km/h (2 Bft) 0 min
05.11.2014 21:01 22,1 C 9,8 C 10,2 C 86 % 0 % 1007 hPa 0,0 l/m 8,3 km/h (2 Bft) 0 min
05.11.2014 21:04 22,1 C 9,9 C 10,1 C 86 % 0 % 1007 hPa 0,0 l/m 5,2 km/h (1 Bft) 0 min
05.11.2014 21:07 22,1 C 9,9 C 10,1 C 86 % 0 % 1007 hPa 0,0 l/m 3,3 km/h (1 Bft) 0 min
05.11.2014 21:10 22,1 C 9,9 C 10,3 C 86 % 0 % 1007 hPa 0,0 l/m 4,8 km/h (1 Bft) 0 min
05.11.2014 21:13 22,1 C 9,9 C 10,2 C 86 % 0 % 1007 hPa 0,0 l/m 3,0 km/h (1 Bft) 0 min
05.11.2014 21:16 22,1 C 10,0 C 10,2 C 86 % 0 % 1007 hPa 0,0 l/m 7,2 km/h (2 Bft) 0 min
05.11.2014 21:19 22,1 C 10,0 C 10,2 C 86 % 0 % 1007 hPa 0,0 l/m 5,9 km/h (2 Bft) 0 min
05.11.2014 21:22 22,1 C 10,0 C 10,2 C 86 % 0 % 1007 hPa 0,0 l/m 7,9 km/h (2 Bft) 0 min
05.11.2014 21:25 22,1 C 10,0 C 10,2 C 86 % 0 % 1007 hPa 0,0 l/m 3,7 km/h (1 Bft) 0 min
05.11.2014 21:28 22,1 C 10,0 C 10,2 C 86 % 0 % 1007 hPa 0,0 l/m 3,7 km/h (1 Bft) 0 min
05.11.2014 21:31 22,1 C 10,0 C 10,2 C 86 % 0 % 1007 hPa 0,0 l/m 5,2 km/h (1 Bft) 0 min
05.11.2014 21:34 22,1 C 10,0 C 10,2 C 87 % 0 % 1007 hPa 0,0 l/m 4,3 km/h (1 Bft) 0 min
05.11.2014 21:37 22,1 C 10,0 C 10,2 C 87 % 0 % 1007 hPa 0,0 l/m 1,6 km/h (1 Bft) 0 min
05.11.2014 21:40 22,1 C 10,0 C 10,2 C 87 % 0 % 1007 hPa 0,0 l/m 5,9 km/h (2 Bft) 0 min
05.11.2014 21:43 22,1 C 10,0 C 10,2 C 87 % 0 % 1008 hPa 0,0 l/m 5,7 km/h (1 Bft) 0 min
05.11.2014 21:46 22,1 C 10,0 C 10,2 C 87 % 0 % 1008 hPa 0,0 l/m 4,3 km/h (1 Bft) 0 min
05.11.2014 21:49 22,1 C 10,0 C 10,1 C 87 % 0 % 1008 hPa 0,0 l/m 4,9 km/h (1 Bft) 0 min
05.11.2014 21:52 22,1 C 9,9 C 10,1 C 87 % 0 % 1008 hPa 0,0 l/m 10,3 km/h (2 Bft) 0 min
05.11.2014 21:55 22,1 C 9,9 C 10,1 C 88 % 0 % 1008 hPa 0,0 l/m 9,6 km/h (2 Bft) 0 min
05.11.2014 21:58 22,1 C 9,9 C 10,1 C 88 % 0 % 1008 hPa 0,0 l/m 5,6 km/h (1 Bft) 0 min
05.11.2014 22:01 22,1 C 9,9 C 10,1 C 88 % 0 % 1008 hPa 0,0 l/m 7,9 km/h (2 Bft) 0 min
05.11.2014 22:04 22,1 C 9,9 C 10,0 C 88 % 0 % 1008 hPa 0,0 l/m 5,9 km/h (2 Bft) 0 min
05.11.2014 22:07 22,1 C 9,9 C 10,0 C 88 % 0 % 1008 hPa 0,0 l/m 9,8 km/h (2 Bft) 0 min
05.11.2014 22:10 22,1 C 9,9 C 10,0 C 88 % 0 % 1008 hPa 0,0 l/m 11,7 km/h (2 Bft) 0 min
05.11.2014 22:13 22,1 C 9,8 C 10,0 C 88 % 0 % 1008 hPa 0,0 l/m 10,7 km/h (2 Bft) 0 min
05.11.2014 22:16 22,1 C 9,7 C 9,9 C 88 % 0 % 1008 hPa 0,0 l/m 5,4 km/h (1 Bft) 0 min
05.11.2014 22:19 22,1 C 9,7 C 9,9 C 88 % 0 % 1008 hPa 0,0 l/m 7,0 km/h (2 Bft) 0 min
05.11.2014 22:22 22,1 C 9,7 C 9,9 C 88 % 0 % 1008 hPa 0,0 l/m 6,0 km/h (2 Bft) 0 min
05.11.2014 22:25 22,1 C 9,7 C 9,9 C 88 % 0 % 1008 hPa 0,0 l/m 9,2 km/h (2 Bft) 0 min
05.11.2014 22:28 22,1 C 9,7 C 9,9 C 88 % 0 % 1008 hPa 0,0 l/m 7,0 km/h (2 Bft) 0 min
05.11.2014 22:31 22,1 C 9,7 C 9,9 C 88 % 0 % 1008 hPa 0,0 l/m 3,5 km/h (1 Bft) 0 min
05.11.2014 22:34 22,1 C 9,7 C 9,9 C 88 % 0 % 1008 hPa 0,0 l/m 3,5 km/h (1 Bft) 0 min
05.11.2014 22:37 22,1 C 9,7 C 9,9 C 88 % 0 % 1008 hPa 0,0 l/m 9,7 km/h (2 Bft) 0 min
05.11.2014 22:40 22,1 C 9,7 C 9,9 C 88 % 0 % 1008 hPa 0,0 l/m 7,9 km/h (2 Bft) 0 min
05.11.2014 22:43 22,1 C 9,6 C 9,9 C 88 % 0 % 1008 hPa 0,0 l/m 9,9 km/h (2 Bft) 0 min
05.11.2014 22:46 22,1 C 9,6 C 9,9 C 88 % 0 % 1008 hPa 0,0 l/m 9,9 km/h (2 Bft) 0 min
05.11.2014 22:49 22,1 C 9,6 C 9,9 C 88 % 0 % 1008 hPa 0,0 l/m 5,9 km/h (2 Bft) 0 min
05.11.2014 22:52 22,1 C 9,6 C 9,9 C 88 % 0 % 1008 hPa 0,0 l/m 7,2 km/h (2 Bft) 0 min
05.11.2014 22:55 22,1 C 9,6 C 9,9 C 88 % 0 % 1008 hPa 0,0 l/m 1,5 km/h (1 Bft) 0 min
05.11.2014 22:58 22,1 C 9,6 C 9,8 C 88 % 0 % 1008 hPa 0,0 l/m 1,5 km/h (1 Bft) 0 min
05.11.2014 23:01 22,1 C 9,6 C 9,8 C 88 % 0 % 1008 hPa 0,0 l/m 1,5 km/h (1 Bft) 0 min
05.11.2014 23:04 22,1 C 9,6 C 9,8 C 88 % 0 % 1008 hPa 0,0 l/m 4,2 km/h (1 Bft) 0 min
05.11.2014 23:07 22,1 C 9,6 C 9,8 C 89 % 0 % 1009 hPa 0,0 l/m 4,2 km/h (1 Bft) 0 min
05.11.2014 23:10 22,1 C 9,6 C 9,8 C 89 % 0 % 1009 hPa 0,0 l/m 3,5 km/h (1 Bft) 0 min
05.11.2014 23:13 22,1 C 9,6 C 9,8 C 89 % 0 % 1009 hPa 0,0 l/m 1,5 km/h (1 Bft) 0 min
05.11.2014 23:16 22,1 C 9,6 C 9,8 C 89 % 0 % 1009 hPa 0,0 l/m 4,0 km/h (1 Bft) 0 min
05.11.2014 23:19 22,1 C 9,6 C 9,8 C 89 % 0 % 1009 hPa 0,0 l/m 9,5 km/h (2 Bft) 0 min
05.11.2014 23:22 22,1 C 9,5 C 9,8 C 89 % 0 % 1009 hPa 0,0 l/m 5,9 km/h (2 Bft) 0 min
05.11.2014 23:25 22,1 C 9,5 C 9,8 C 89 % 0 % 1008 hPa 0,0 l/m 5,8 km/h (2 Bft) 0 min
05.11.2014 23:28 22,1 C 9,5 C 9,7 C 88 % 0 % 1008 hPa 0,0 l/m 3,7 km/h (1 Bft) 0 min
05.11.2014 23:31 22,1 C 9,5 C 9,7 C 88 % 0 % 1008 hPa 0,0 l/m 4,2 km/h (1 Bft) 0 min
05.11.2014 23:34 22,1 C 9,5 C 9,7 C 88 % 0 % 1008 hPa 0,0 l/m 9,0 km/h (2 Bft) 0 min
05.11.2014 23:37 22,1 C 9,5 C 9,7 C 88 % 0 % 1008 hPa 0,0 l/m 4,6 km/h (1 Bft) 0 min
05.11.2014 23:40 22,1 C 9,5 C 9,7 C 88 % 0 % 1008 hPa 0,0 l/m 4,5 km/h (1 Bft) 0 min
05.11.2014 23:43 22,1 C 9,5 C 9,7 C 88 % 0 % 1008 hPa 0,0 l/m 6,3 km/h (2 Bft) 0 min
05.11.2014 23:46 22,1 C 9,4 C 9,7 C 88 % 0 % 1009 hPa 0,0 l/m 3,4 km/h (1 Bft) 0 min
05.11.2014 23:49 22,1 C 9,5 C 9,7 C 88 % 0 % 1009 hPa 0,0 l/m 5,7 km/h (1 Bft) 0 min
05.11.2014 23:52 22,1 C 9,4 C 9,7 C 88 % 0 % 1009 hPa 0,0 l/m 5,6 km/h (1 Bft) 0 min
05.11.2014 23:55 22,1 C 9,4 C 9,7 C 88 % 0 % 1009 hPa 0,0 l/m 4,4 km/h (1 Bft) 0 min
05.11.2014 23:58 22,1 C 9,4 C 9,7 C 88 % 0 % 1009 hPa 0,0 l/m 3,7 km/h (1 Bft) 0 min
_ Min-Zeit 07:13 00:33 01:19 15:01 - 00:00 - 00:03 -
Minimum _ 21,5 C 7,0 C 7,1 C 70 % - 999 hPa - 0,0 km/h (0 Bft) -
_ Max-Zeit 06:52 14:04 14:13 23:07 11:37 23:07 00:00 10:55 00:00
Maximum _ 22,4 C 11,5 C 11,5 C 89 % 51 % 1009 hPa 0,0 l/m 17,9 km/h
W-NW (3 Bft)
0 min
Durchschnitt _ 22,2 C 9,3 C 9,4 C 82 % #0 min. 1003 hPa #0,0 l/m 2,8 km/h (1 Bft) #0 min.